When you browse on this site, cookies collect data to enhance your experience and personalize the content and advertising you see.
Visit our Privacy Policy to learn more. By continuing to use the site, you agree to this use of cookies and data.
  • Em Portugal
  • Lista de países
  • Para 7 dias
  • Temperatura da água
  • Mapas de satélite
  • Mapa do tempo
  • Widgets de tempo
  • user-avatar
    Iniciar Sessão

    Previsão horária em Liège

    Hoje, 25 Maio, Sábado

    Tempo Temperatura Precipitação Vento Pressão Humidade
    00:00 +9°C° 0 mm 1 m/s 753 mmHg 81%
    01:00 +9°C° 0 mm 1 m/s 753 mmHg 83%
    02:00 +7°C° 0 mm 0 m/s 753 mmHg 85%
    03:00 +7°C° 0 mm 0 m/s 753 mmHg 87%
    04:00 +8°C° 0 mm 0 m/s 753 mmHg 83%
    05:00 +9°C° 0 mm 0 m/s 753 mmHg 79%
    06:00 +11°C° 0 mm 0 m/s 753 mmHg 76%
    07:00 +13°C° 0 mm 1 m/s 753 mmHg 72%
    08:00 +15°C° 0 mm 1 m/s 753 mmHg 67%
    09:00 +16°C° 0 mm 2 m/s 753 mmHg 63%
    10:00 +16°C° 0.1 mm 2 m/s 753 mmHg 66%
    11:00 +16°C° 0.1 mm 2 m/s 753 mmHg 70%
    12:00 +16°C° 0.1 mm 2 m/s 753 mmHg 73%
    13:00 +17°C° 0 mm 2 m/s 753 mmHg 69%
    14:00 +19°C° 0 mm 1 m/s 753 mmHg 65%
    15:00 +19°C° 0 mm 1 m/s 752 mmHg 61%
    16:00 +17°C° 0 mm 0 m/s 752 mmHg 65%
    17:00 +17°C° 0 mm 0 m/s 752 mmHg 69%
    18:00 +17°C° 0 mm 0 m/s 752 mmHg 72%
    19:00 +16°C° 0 mm 1 m/s 753 mmHg 76%
    20:00 +14°C° 0 mm 1 m/s 753 mmHg 80%
    21:00 +12°C° 0 mm 1 m/s 753 mmHg 83%
    22:00 +12°C° 0 mm 1 m/s 753 mmHg 86%
    23:00 +10°C° 0 mm 2 m/s 753 mmHg 90%

    Amanhã, 26 Maio, Domingo

    Tempo Temperatura Precipitação Vento Pressão Humidade
    00:00 +10°C° 0 mm 2 m/s 753 mmHg 93%
    01:00 +10°C° 0 mm 2 m/s 753 mmHg 94%
    02:00 +9°C° 0 mm 2 m/s 752 mmHg 94%
    03:00 +9°C° 0 mm 2 m/s 752 mmHg 95%
    04:00 +10°C° 0 mm 2 m/s 752 mmHg 92%
    05:00 +11°C° 0 mm 3 m/s 752 mmHg 90%
    06:00 +12°C° 0 mm 3 m/s 752 mmHg 87%
    07:00 +14°C° 0 mm 3 m/s 752 mmHg 82%
    08:00 +17°C° 0 mm 4 m/s 752 mmHg 78%
    09:00 +19°C° 0 mm 4 m/s 752 mmHg 73%
    10:00 +19°C° 0.1 mm 4 m/s 752 mmHg 73%
    11:00 +20°C° 0.1 mm 5 m/s 751 mmHg 72%
    12:00 +21°C° 0.1 mm 5 m/s 751 mmHg 72%
    13:00 +20°C° 0.2 mm 5 m/s 751 mmHg 75%
    14:00 +20°C° 0.2 mm 5 m/s 751 mmHg 78%
    15:00 +19°C° 0.2 mm 5 m/s 750 mmHg 81%
    16:00 +19°C° 0.1 mm 5 m/s 750 mmHg 83%
    17:00 +18°C° 0.1 mm 4 m/s 750 mmHg 85%
    18:00 +18°C° 0.1 mm 4 m/s 750 mmHg 86%
    19:00 +17°C° 0 mm 4 m/s 750 mmHg 88%
    20:00 +17°C° 0 mm 4 m/s 750 mmHg 89%
    21:00 +15°C° 0 mm 4 m/s 750 mmHg 91%
    22:00 +15°C° 0.1 mm 4 m/s 749 mmHg 92%
    23:00 +15°C° 0.1 mm 4 m/s 749 mmHg 93%

    Depois de amanhã, 27 Maio, Segunda-feira

    Tempo Temperatura Precipitação Vento Pressão Humidade
    00:00 +15°C° 0.1 mm 5 m/s 749 mmHg 93%
    01:00 +14°C° 0.9 mm 4 m/s 749 mmHg 95%
    02:00 +14°C° 0.9 mm 4 m/s 749 mmHg 96%
    03:00 +14°C° 0.9 mm 4 m/s 748 mmHg 97%
    04:00 +14°C° 0.3 mm 3 m/s 748 mmHg 96%
    05:00 +13°C° 0.3 mm 3 m/s 749 mmHg 95%
    06:00 +14°C° 0.3 mm 2 m/s 749 mmHg 94%
    07:00 +14°C° 0 mm 3 m/s 749 mmHg 86%
    08:00 +16°C° 0 mm 3 m/s 749 mmHg 79%
    09:00 +17°C° 0 mm 4 m/s 749 mmHg 72%
    10:00 +17°C° 0 mm 4 m/s 749 mmHg 68%
    11:00 +18°C° 0 mm 4 m/s 749 mmHg 65%
    12:00 +19°C° 0 mm 5 m/s 749 mmHg 61%
    13:00 +18°C° 0.1 mm 4 m/s 749 mmHg 64%
    14:00 +18°C° 0.1 mm 4 m/s 749 mmHg 66%
    15:00 +18°C° 0.1 mm 4 m/s 748 mmHg 68%
    16:00 +17°C° 0.1 mm 4 m/s 748 mmHg 72%
    17:00 +16°C° 0.1 mm 3 m/s 748 mmHg 76%
    18:00 +14°C° 0.1 mm 3 m/s 748 mmHg 80%
    19:00 +13°C° 0.1 mm 3 m/s 748 mmHg 83%
    20:00 +13°C° 0.1 mm 2 m/s 749 mmHg 85%
    21:00 +12°C° 0.1 mm 2 m/s 749 mmHg 88%
    22:00 +10°C° 0.1 mm 2 m/s 749 mmHg 90%
    23:00 +10°C° 0.1 mm 2 m/s 749 mmHg 92%

    28 Maio, Terça-feira

    Tempo Temperatura Precipitação Vento Pressão Humidade
    00:00 +10°C° 0.1 mm 3 m/s 749 mmHg 94%
    01:00 +9°C° 0.1 mm 3 m/s 748 mmHg 95%
    02:00 +9°C° 0.1 mm 3 m/s 748 mmHg 96%
    03:00 +9°C° 0.1 mm 2 m/s 748 mmHg 96%
    04:00 +9°C° 0.1 mm 3 m/s 748 mmHg 95%
    05:00 +9°C° 0.1 mm 3 m/s 749 mmHg 94%
    06:00 +9°C° 0.1 mm 3 m/s 749 mmHg 93%
    07:00 +10°C° 0.1 mm 3 m/s 749 mmHg 91%
    08:00 +10°C° 0.1 mm 3 m/s 750 mmHg 89%
    09:00 +10°C° 0.1 mm 3 m/s 750 mmHg 86%
    10:00 +11°C° 0.1 mm 3 m/s 750 mmHg 80%
    11:00 +12°C° 0.1 mm 4 m/s 750 mmHg 73%
    12:00 +12°C° 0.1 mm 4 m/s 751 mmHg 67%
    13:00 +13°C° 0.1 mm 4 m/s 751 mmHg 64%
    14:00 +13°C° 0.1 mm 5 m/s 751 mmHg 62%
    15:00 +13°C° 0.1 mm 5 m/s 751 mmHg 59%
    16:00 +13°C° 0.1 mm 4 m/s 752 mmHg 63%
    17:00 +12°C° 0.1 mm 4 m/s 752 mmHg 66%
    18:00 +12°C° 0.1 mm 3 m/s 753 mmHg 69%
    19:00 +10°C° 0 mm 3 m/s 753 mmHg 72%
    20:00 +8°C° 0 mm 3 m/s 754 mmHg 75%
    21:00 +7°C° 0 mm 2 m/s 755 mmHg 77%
    22:00 +6°C° 0 mm 2 m/s 755 mmHg 80%
    23:00 +6°C° 0 mm 1 m/s 755 mmHg 83%

    29 Maio, Quarta-feira

    Tempo Temperatura Precipitação Vento Pressão Humidade
    00:00 +5°C° 0 mm 1 m/s 755 mmHg 86%
    01:00 +5°C° 0 mm 1 m/s 756 mmHg 87%
    02:00 +3°C° 0 mm 0 m/s 756 mmHg 88%
    03:00 +3°C° 0 mm 0 m/s 756 mmHg 89%
    04:00 +4°C° 0 mm 0 m/s 756 mmHg 85%
    05:00 +7°C° 0 mm 1 m/s 757 mmHg 80%
    06:00 +9°C° 0 mm 1 m/s 757 mmHg 76%
    07:00 +10°C° 0 mm 1 m/s 757 mmHg 70%
    08:00 +12°C° 0 mm 1 m/s 757 mmHg 64%
    09:00 +13°C° 0 mm 1 m/s 757 mmHg 58%
    10:00 +14°C° 0 mm 2 m/s 757 mmHg 57%
    11:00 +15°C° 0 mm 2 m/s 757 mmHg 56%
    12:00 +16°C° 0 mm 2 m/s 757 mmHg 55%
    13:00 +16°C° 0.1 mm 2 m/s 757 mmHg 57%
    14:00 +17°C° 0.1 mm 2 m/s 757 mmHg 58%
    15:00 +17°C° 0.1 mm 3 m/s 757 mmHg 59%
    16:00 +16°C° 0.1 mm 2 m/s 757 mmHg 65%
    17:00 +15°C° 0.1 mm 2 m/s 757 mmHg 71%
    18:00 +15°C° 0.1 mm 2 m/s 757 mmHg 78%
    19:00 +13°C° 0 mm 2 m/s 758 mmHg 81%
    20:00 +11°C° 0 mm 1 m/s 758 mmHg 84%
    21:00 +10°C° 0 mm 1 m/s 758 mmHg 87%
    22:00 +9°C° 0 mm 1 m/s 758 mmHg 87%
    23:00 +7°C° 0 mm 2 m/s 758 mmHg 88%

    30 Maio, Quinta-feira

    Tempo Temperatura Precipitação Vento Pressão Humidade
    00:00 +7°C° 0 mm 2 m/s 758 mmHg 89%
    01:00 +7°C° 0 mm 2 m/s 757 mmHg 89%
    02:00 +7°C° 0 mm 3 m/s 757 mmHg 90%
    03:00 +5°C° 0 mm 3 m/s 757 mmHg 90%
    04:00 +8°C° 0 mm 3 m/s 757 mmHg 86%
    05:00 +8°C° 0 mm 4 m/s 756 mmHg 82%
    06:00 +9°C° 0 mm 5 m/s 756 mmHg 77%
    07:00 +10°C° 0 mm 6 m/s 756 mmHg 75%
    08:00 +11°C° 0 mm 6 m/s 755 mmHg 72%
    09:00 +14°C° 0 mm 7 m/s 755 mmHg 69%
    10:00 +14°C° 0 mm 7 m/s 754 mmHg 71%
    11:00 +15°C° 0 mm 7 m/s 754 mmHg 73%
    12:00 +15°C° 0 mm 7 m/s 754 mmHg 75%
    13:00 +14°C° 0.3 mm 7 m/s 753 mmHg 81%
    14:00 +14°C° 0.3 mm 6 m/s 753 mmHg 87%
    15:00 +13°C° 0.3 mm 6 m/s 752 mmHg 93%
    16:00 +13°C° 0.3 mm 6 m/s 752 mmHg 93%
    17:00 +13°C° 0.3 mm 6 m/s 751 mmHg 93%
    18:00 +13°C° 0.3 mm 6 m/s 751 mmHg 94%
    19:00 +13°C° 0.2 mm 6 m/s 750 mmHg 94%
    20:00 +13°C° 0.2 mm 6 m/s 750 mmHg 94%
    21:00 +13°C° 0.2 mm 6 m/s 749 mmHg 95%
    22:00 +13°C° 0.1 mm 6 m/s 749 mmHg 95%
    23:00 +11°C° 0.1 mm 6 m/s 749 mmHg 95%
    Mostrar mais